Location: Peterborough
(44.3091°N, 78.3197°W)
Time: 06:40:30
(UTC-04:00)

Vanguard 1 Rocket - Pass Details

Date: 25 March 2023
Orbit: 655 x 4220 km, 34.3° (Epoch: 04 June)

Event Time Altitude Azimuth Distance (km) Brightness Sun altitude
Rises 02:16:16 0° 258° (WSW) 7,899 11.9 -42.2°
Enters shadow 02:19:35 - 256° (WSW) 7,129 11.7 -42.0°
Reaches altitude 10° 02:22:26 10° 255° (WSW) 6,437 - -41.9°
Maximum altitude 02:39:51 54° 185° (S) 2,499 - -40.6°
Exits shadow 02:46:50 21° 118° (ESE) 3,001 9.9 -40.0°
Drops below altitude 10° 02:48:52 10° 111° (ESE) 3,499 10.4 -39.8°
Sets 02:51:12 0° 106° (ESE) 4,172 10.9 -39.6°
